STARLINK-32041, 60202

Orbit data source: Space-Track

STARLINK-32041, 60202 is a payload satellite owned by SpaceX/Seattle (US) in LEO that was launched on Wed, 03 Jul 2024 UTC via an FALCON 9 launch vehicle from the Air Force Eastern Test Range (AFETR). Payload-class satellites include a variety of spacecraft equipped with specific instruments for various scientific and technological missions. These include communications satellites like Starlink; space stations such as the ISS; scientific satellites like the Hubble; Earth observation satellites from companies like Planet Labs, Umbra, and HawkEye 360; GPS; miniature CubeSats for education and research; and military/defense satellites.

Loading next visibility...
Identifier
60202, 2024-124V
Orbit
LEO
Country
Flag of USUS
Related business
Manufacturer
SpaceX/Seattle
Mission
Operational Commercial Communications
Bus & Motor
STARLINK V2M, Unknown motor
Mass
730 kg wet, ~700 kg dry
Launch date (UTC)
2024-07-03 (1 year ago)
Launch vehicle
FALCON 9
Launch site
Air Force Eastern Test Range (AFETR)
Object type
Payload
Rocket body
Debris
Shape & HBR
Box + 2 Pan, 17.7 m
Radar Cross Section
33.884 m², Large (>1 m²)

Expand to show TLE details & history
Last TLE update: 9 hours ago

TLE from 9 hours ago
0 STARLINK-32041
1 60202U 24124V   25293.18574009 -.00002521  00000-0 -73063-4 0  9993
2 60202  53.1605 255.1368 0001364  82.2593 277.8562 15.30181309 73980
Epoch: 2025-10-20T04:27Z
TLE epoch observation values (Epoch: 2025-10-20T04:27:27.943Z)
Latitude
-0.00008°
Longitude
159.37863°
Altitude
476.043 km
Speed
7.629 km/s
True Right ascension
17h 00m 32s
True Declination
0° 00' 00"
Sunlit
Object was in daylight at epoch
Visualization orbit readout
Latitude
Unknown
Longitude
Unknown
Altitude
Unknown
Speed
Unknown
Apparent Right ascension
Unknown
Apparent Declination
Unknown
Sunlit
N/A
Visualization observer readout
Local Sidereal Time
08:06:32
Azimuth
Unknown
Elevation
Unknown
Doppler factor
Unknown
Orbital elements
Apogee altitude
476.462 km
Perigee altitude
474.592 km
Semi-major axis
6,853.664 km
Eccentricity
0.00014
Inclination
53.1605°
RAAN
255.1368°
Arg. of periapsis
82.2593°
True anomaly
277.84072°
Mean anomaly
277.8562°
Eccentric anomaly
277.84846°
Mean motion
3.82524 °/min
Orbital period
94.11 mins
BSTAR
-0.000073063
Loading maneuver chart data...
Computing Atmospheric mass density...
Loading historical data...
Loading historical data...
Loading historical data...
Loading historical data...
Loading historical data...
Loading historical data...
Loading historical data...

Documentation

Showing up to 5 results
|